| time (UTC) | temp C | wind direction | speed KPH | gust KPH | rain 1hr cm | rain 24hr cm | rain mn cm | humidity % | barometer mb |
| 20260906225554 | 37 | 171 | 0.0 | 3.2 | 0.00 | 0.00 | 0.00 | 39 | 1009.3 |
| 20260906225051 | 37 | 149 | 1.6 | 4.8 | 0.00 | 0.00 | 0.00 | 39 | 1009.3 |
| 20260906224546 | 37 | 131 | 3.2 | 3.2 | 0.00 | 0.00 | 0.00 | 40 | 1009.4 |
| 20260906224043 | 37 | 159 | 3.2 | 4.8 | 0.00 | 0.00 | 0.00 | 41 | 1009.2 |
| 20260906223538 | 37 | 90 | 3.2 | 8.0 | 0.00 | 0.00 | 0.00 | 41 | 1009.3 |
| 20260906223037 | 37 | 117 | 3.2 | 3.2 | 0.00 | 0.00 | 0.00 | 41 | 1009.3 |
| 20260906222536 | 37 | 62 | 3.2 | 8.0 | 0.00 | 0.00 | 0.00 | 41 | 1009.2 |
| 20260906222034 | 37 | 148 | 3.2 | 4.8 | 0.00 | 0.00 | 0.00 | 41 | 1009.3 |
| 20260906221532 | 37 | 95 | 4.8 | 8.0 | 0.00 | 0.00 | 0.00 | 41 | 1009.3 |
| 20260906221028 | 37 | 109 | 3.2 | 8.0 | 0.00 | 0.00 | 0.00 | 42 | 1009.4 |
| 20260906220523 | 37 | 89 | 3.2 | 8.0 | 0.00 | 0.00 | 0.00 | 41 | 1009.5 |
| 20260906220018 | 38 | 95 | 0.0 | 4.8 | 0.00 | 0.00 | 0.00 | 40 | 1009.5 |
| 20260906215512 | 37 | 130 | 1.6 | 8.0 | 0.00 | 0.00 | 0.00 | 39 | 1009.6 |
| 20260906215010 | 38 | 314 | 4.8 | 8.0 | 0.00 | 0.00 | 0.00 | 40 | 1009.7 |
| 20260906214509 | 37 | 196 | 0.0 | 1.6 | 0.00 | 0.00 | 0.00 | 41 | 1009.7 |
| 20260906214009 | 37 | 173 | 1.6 | 4.8 | 0.00 | 0.00 | 0.00 | 42 | 1009.8 |
| 20260906213458 | 37 | 168 | 0.0 | 4.8 | 0.00 | 0.00 | 0.00 | 43 | 1010.0 |
| 20260906212956 | 38 | 95 | 4.8 | 8.0 | 0.00 | 0.00 | 0.00 | 41 | 1010.0 |
| 20260906212450 | 39 | 164 | 1.6 | 3.2 | 0.00 | 0.00 | 0.00 | 37 | 1010.0 |
| 20260906211946 | 38 | 76 | 4.8 | 4.8 | 0.00 | 0.00 | 0.00 | 40 | 1010.1 |
| 20260906211445 | 37 | 139 | 1.6 | 3.2 | 0.00 | 0.00 | 0.00 | 40 | 1010.3 |
| 20260906210941 | 37 | 57 | 1.6 | 3.2 | 0.00 | 0.00 | 0.00 | 42 | 1010.2 |
| 20260906210431 | 37 | 97 | 4.8 | 8.0 | 0.00 | 0.00 | 0.00 | 43 | 1010.3 |
| 20260906205924 | 38 | 48 | 3.2 | 3.2 | 0.00 | 0.00 | 0.00 | 42 | 1010.4 |
| 20260906205421 | 37 | 280 | 1.6 | 1.6 | 0.00 | 0.00 | 0.00 | 41 | 1010.6 |
| 20260906204917 | 37 | 119 | 4.8 | 4.8 | 0.00 | 0.00 | 0.00 | 42 | 1010.5 |
| 20260906204416 | 37 | 133 | 3.2 | 8.0 | 0.00 | 0.00 | 0.00 | 43 | 1010.6 |
| 20260906203915 | 37 | 158 | 3.2 | 8.0 | 0.00 | 0.00 | 0.00 | 42 | 1010.5 |
| 20260906203410 | 37 | 56 | 9.7 | 12.9 | 0.00 | 0.00 | 0.00 | 43 | 1010.6 |
| 20260906202908 | 37 | 188 | 0.0 | 1.6 | 0.00 | 0.00 | 0.00 | 44 | 1010.6 |
| 20260906202402 | 37 | 131 | 3.2 | 8.0 | 0.00 | 0.00 | 0.00 | 43 | 1010.8 |
| 20260906201902 | 37 | 120 | 4.8 | 9.7 | 0.00 | 0.00 | 0.00 | 42 | 1010.8 |
| 20260906201356 | 37 | 301 | 4.8 | 4.8 | 0.00 | 0.00 | 0.00 | 41 | 1010.8 |
| 20260906200851 | 37 | 159 | 1.6 | 3.2 | 0.00 | 0.00 | 0.00 | 42 | 1010.7 |
| 20260906200348 | 37 | 98 | 4.8 | 4.8 | 0.00 | 0.00 | 0.00 | 42 | 1010.9 |
| 20260906195842 | 37 | 183 | 6.4 | 9.7 | 0.00 | 0.00 | 0.00 | 42 | 1011.1 |
| 20260906195339 | 37 | 5 | 3.2 | 8.0 | 0.00 | 0.00 | 0.00 | 43 | 1011.1 |
| 20260906194834 | 37 | 171 | 1.6 | 3.2 | 0.00 | 0.00 | 0.00 | 43 | 1010.9 |
| 20260906194330 | 37 | 175 | 4.8 | 8.0 | 0.00 | 0.00 | 0.00 | 41 | 1011.2 |
| 20260906193825 | 37 | 146 | 0.0 | 9.7 | 0.00 | 0.00 | 0.00 | 44 | 1011.1 |
| 20260906193320 | 37 | 118 | 4.8 | 8.0 | 0.00 | 0.00 | 0.00 | 44 | 1011.1 |
| 20260906192815 | 37 | 79 | 1.6 | 8.0 | 0.00 | 0.00 | 0.00 | 43 | 1011.2 |
| 20260906192310 | 37 | 159 | 1.6 | 3.2 | 0.00 | 0.00 | 0.00 | 44 | 1011.2 |
| 20260906191809 | 37 | 110 | 3.2 | 4.8 | 0.00 | 0.00 | 0.00 | 44 | 1011.7 |
| 20260906191303 | 37 | 84 | 4.8 | 4.8 | 0.00 | 0.00 | 0.00 | 43 | 1011.6 |
| 20260906190757 | 38 | 169 | 1.6 | 3.2 | 0.00 | 0.00 | 0.00 | 42 | 1011.4 |
| 20260906190251 | 37 | 171 | 3.2 | 9.7 | 0.00 | 0.00 | 0.00 | 44 | 1011.6 |
| 20260906185750 | 37 | 46 | 1.6 | 8.0 | 0.00 | 0.00 | 0.00 | 43 | 1011.3 |
| 20260906185250 | 37 | 98 | 1.6 | 4.8 | 0.00 | 0.00 | 0.00 | 44 | 1011.5 |
| 20260906184745 | 37 | 18 | 3.2 | 9.7 | 0.00 | 0.00 | 0.00 | 45 | 1011.6 |
| 20260906184235 | 37 | 214 | 0.0 | 3.2 | 0.00 | 0.00 | 0.00 | 46 | 1011.6 |
| 20260906183730 | 37 | 166 | 0.0 | 4.8 | 0.00 | 0.00 | 0.00 | 45 | 1011.9 |
| 20260906183226 | 37 | 192 | 1.6 | 8.0 | 0.00 | 0.00 | 0.00 | 45 | 1011.7 |
| 20260906182725 | 37 | 159 | 1.6 | 4.8 | 0.00 | 0.00 | 0.00 | 46 | 1011.9 |
| 20260906182222 | 36 | 114 | 3.2 | 4.8 | 0.00 | 0.00 | 0.00 | 46 | 1011.8 |
| 20260906181716 | 36 | 171 | 1.6 | 4.8 | 0.00 | 0.00 | 0.00 | 46 | 1011.9 |
| 20260906181214 | 36 | 111 | 3.2 | 8.0 | 0.00 | 0.00 | 0.00 | 48 | 1012.2 |
| 20260906180708 | 36 | 138 | 1.6 | 4.8 | 0.00 | 0.00 | 0.00 | 48 | 1012.1 |
| 20260906180203 | 36 | 172 | 0.0 | 3.2 | 0.00 | 0.00 | 0.00 | 49 | 1012.0 |
| 20260906175701 | 37 | 51 | 4.8 | 9.7 | 0.00 | 0.00 | 0.00 | 45 | 1012.2 |
| 20260906175156 | 37 | 230 | 1.6 | 3.2 | 0.00 | 0.00 | 0.00 | 46 | 1012.3 |
| 20260906174655 | 36 | 59 | 4.8 | 8.0 | 0.00 | 0.00 | 0.00 | 46 | 1012.5 |
| 20260906174149 | 36 | 251 | 0.0 | 4.8 | 0.00 | 0.00 | 0.00 | 47 | 1012.6 |
| 20260906173645 | 35 | 198 | 1.6 | 3.2 | 0.00 | 0.00 | 0.00 | 48 | 1012.8 |
| 20260906173140 | 35 | 159 | 1.6 | 4.8 | 0.00 | 0.00 | 0.00 | 49 | 1012.7 |
| 20260906172639 | 35 | 55 | 1.6 | 9.7 | 0.00 | 0.00 | 0.00 | 50 | 1013.0 |
| 20260906172135 | 36 | 84 | 6.4 | 9.7 | 0.00 | 0.00 | 0.00 | 49 | 1012.9 |
| 20260906171634 | 35 | 294 | 3.2 | 4.8 | 0.00 | 0.00 | 0.00 | 52 | 1012.8 |
| 20260906171130 | 36 | 132 | 1.6 | 4.8 | 0.00 | 0.00 | 0.00 | 49 | 1012.7 |
| 20260906170627 | 35 | 65 | 3.2 | 8.0 | 0.00 | 0.00 | 0.00 | 51 | 1012.8 |
| 20260906170126 | 35 | 121 | 0.0 | 3.2 | 0.00 | 0.00 | 0.00 | 51 | 1012.8 |
| 20260906165622 | 36 | 53 | 4.8 | 8.0 | 0.00 | 0.00 | 0.00 | 50 | 1013.0 |
| 20260906165117 | 36 | 89 | 1.6 | 8.0 | 0.00 | 0.00 | 0.00 | 51 | 1012.9 |
| 20260906164616 | 35 | 112 | 1.6 | 3.2 | 0.00 | 0.00 | 0.00 | 52 | 1013.2 |
| 20260906164112 | 35 | 138 | 1.6 | 9.7 | 0.00 | 0.00 | 0.00 | 52 | 1013.3 |
| 20260906163607 | 35 | 190 | 3.2 | 4.8 | 0.00 | 0.00 | 0.00 | 52 | 1013.2 |
| 20260906163103 | 35 | 158 | 3.2 | 3.2 | 0.00 | 0.00 | 0.00 | 54 | 1013.3 |
| 20260906162600 | 35 | 108 | 1.6 | 3.2 | 0.00 | 0.00 | 0.00 | 53 | 1013.2 |
| 20260906162055 | 34 | 136 | 1.6 | 4.8 | 0.00 | 0.00 | 0.00 | 53 | 1013.3 |
| 20260906161550 | 35 | 79 | 4.8 | 8.0 | 0.00 | 0.00 | 0.00 | 53 | 1013.3 |
| 20260906161049 | 35 | 108 | 4.8 | 8.0 | 0.00 | 0.00 | 0.00 | 52 | 1013.3 |
| 20260906160548 | 35 | 172 | 1.6 | 1.6 | 0.00 | 0.00 | 0.00 | 52 | 1013.0 |
| 20260906160046 | 35 | 139 | 1.6 | 4.8 | 0.00 | 0.00 | 0.00 | 54 | 1013.2 |
| 20260906155544 | 35 | 316 | 3.2 | 3.2 | 0.00 | 0.00 | 0.00 | 56 | 1013.3 |
| 20260906155040 | 35 | 170 | 0.0 | 1.6 | 0.00 | 0.00 | 0.00 | 55 | 1013.0 |
| 20260906154535 | 36 | 84 | 1.6 | 3.2 | 0.00 | 0.00 | 0.00 | 53 | 1013.2 |
| 20260906154034 | 35 | 192 | 0.0 | 1.6 | 0.00 | 0.00 | 0.00 | 55 | 1013.2 |
| 20260906153533 | 35 | 179 | 1.6 | 3.2 | 0.00 | 0.00 | 0.00 | 55 | 1013.2 |
| 20260906153028 | 35 | 152 | 0.0 | 1.6 | 0.00 | 0.00 | 0.00 | 55 | 1012.9 |
| 20260906152522 | 35 | 162 | 0.0 | 1.6 | 0.00 | 0.00 | 0.00 | 56 | 1012.9 |
| 20260906152021 | 35 | 176 | 1.6 | 4.8 | 0.00 | 0.00 | 0.00 | 58 | 1012.6 |
| 20260906151517 | 35 | 154 | 3.2 | 3.2 | 0.00 | 0.00 | 0.00 | 56 | 1012.7 |
| 20260906151013 | 34 | 204 | 1.6 | 3.2 | 0.00 | 0.00 | 0.00 | 58 | 1012.8 |
| 20260906150508 | 34 | 65 | 1.6 | 3.2 | 0.00 | 0.00 | 0.00 | 58 | 1012.6 |
| 20260906150008 | 34 | 130 | 1.6 | 3.2 | 0.00 | 0.00 | 0.00 | 60 | 1012.6 |
| 20260906145507 | 33 | 138 | 1.6 | 3.2 | 0.00 | 0.00 | 0.00 | 59 | 1012.5 |
| 20260906145003 | 33 | 194 | 0.0 | 1.6 | 0.00 | 0.00 | 0.00 | 63 | 1012.6 |
| 20260906144456 | 33 | 89 | 3.2 | 3.2 | 0.00 | 0.00 | 0.00 | 61 | 1012.7 |
| 20260906143952 | 33 | 122 | 1.6 | 1.6 | 0.00 | 0.00 | 0.00 | 61 | 1012.5 |
| 20260906143447 | 33 | 163 | 0.0 | 3.2 | 0.00 | 0.00 | 0.00 | 61 | 1012.5 |
| 20260906142944 | 32 | 134 | 0.0 | 1.6 | 0.00 | 0.00 | 0.00 | 62 | 1012.8 |
| 20260906142442 | 32 | 140 | 0.0 | 1.6 | 0.00 | 0.00 | 0.00 | 64 | 1012.6 |
| 20260906141938 | 32 | 178 | 0.0 | 1.6 | 0.00 | 0.00 | 0.00 | 65 | 1012.6 |
| 20260906141431 | 31 | 133 | 0.0 | 1.6 | 0.00 | 0.00 | 0.00 | 66 | 1012.5 |
| 20260906140926 | 31 | 152 | 0.0 | 1.6 | 0.00 | 0.00 | 0.00 | 67 | 1012.5 |
| 20260906140420 | 31 | 146 | 0.0 | 4.8 | 0.00 | 0.00 | 0.00 | 67 | 1012.6 |
| 20260906135919 | 30 | 159 | 0.0 | 0.0 | 0.00 | 0.00 | 0.00 | 69 | 1012.7 |
| 20260906135418 | 31 | 122 | 1.6 | 3.2 | 0.00 | 0.00 | 0.00 | 67 | 1012.7 |
| 20260906134914 | 31 | 181 | 1.6 | 1.6 | 0.00 | 0.00 | 0.00 | 66 | 1012.7 |
| 20260906134409 | 31 | 159 | 0.0 | 1.6 | 0.00 | 0.00 | 0.00 | 67 | 1012.9 |
| 20260906133904 | 31 | 139 | 0.0 | 1.6 | 0.00 | 0.00 | 0.00 | 67 | 1013.0 |
| 20260906133400 | 31 | 93 | 1.6 | 1.6 | 0.00 | 0.00 | 0.00 | 68 | 1013.0 |
| 20260906132855 | 31 | 138 | 0.0 | 1.6 | 0.00 | 0.00 | 0.00 | 67 | 1012.8 |
| 20260906132350 | 32 | 138 | 0.0 | 0.0 | 0.00 | 0.00 | 0.00 | 65 | 1012.8 |
| 20260906131846 | 31 | 138 | 0.0 | 0.0 | 0.00 | 0.00 | 0.00 | 68 | 1012.8 |
| 20260906131341 | 30 | 138 | 0.0 | 0.0 | 0.00 | 0.00 | 0.00 | 69 | 1012.8 |
| 20260906130837 | 30 | 138 | 0.0 | 0.0 | 0.00 | 0.00 | 0.00 | 71 | 1012.8 |
| 20260906130336 | 30 | 138 | 0.0 | 0.0 | 0.00 | 0.00 | 0.00 | 73 | 1012.5 |
| 20260906125835 | 28 | 139 | 0.0 | 0.0 | 0.00 | 0.00 | 0.00 | 75 | 1012.5 |
| 20260906125333 | 28 | 139 | 0.0 | 0.0 | 0.00 | 0.00 | 0.00 | 77 | 1012.3 |
| 20260906124828 | 27 | 139 | 0.0 | 0.0 | 0.00 | 0.00 | 0.00 | 86 | 1012.5 |
| 20260906124324 | 26 | 139 | 0.0 | 0.0 | 0.00 | 0.00 | 0.00 | 88 | 1012.3 |
| 20260906123823 | 25 | 139 | 0.0 | 0.0 | 0.00 | 0.00 | 0.00 | 91 | 1012.4 |
| 20260906123318 | 24 | 139 | 0.0 | 0.0 | 0.00 | 0.00 | 0.00 | 94 | 1012.3 |
| 20260906122817 | 23 | 139 | 0.0 | 0.0 | 0.00 | 0.00 | 0.00 | 94 | 1012.2 |
| 20260906122312 | 23 | 139 | 0.0 | 0.0 | 0.00 | 0.00 | 0.00 | 95 | 1012.4 |
| 20260906121810 | 23 | 139 | 0.0 | 0.0 | 0.00 | 0.00 | 0.00 | 94 | 1012.3 |
| 20260906121305 | 23 | 139 | 0.0 | 0.0 | 0.00 | 0.00 | 0.00 | 94 | 1012.1 |
| 20260906120800 | 23 | 139 | 0.0 | 0.0 | 0.00 | 0.00 | 0.00 | 94 | 1012.1 |
| 20260906120257 | 23 | 139 | 0.0 | 0.0 | 0.00 | 0.00 | 0.00 | 94 | 1011.9 |
| 20260906115753 | 23 | 139 | 0.0 | 0.0 | 0.00 | 0.00 | 0.00 | 93 | 1012.0 |
| 20260906115248 | 23 | 139 | 0.0 | 0.0 | 0.00 | 0.00 | 0.00 | 93 | 1011.8 |
| 20260906114746 | 23 | 139 | 0.0 | 0.0 | 0.00 | 0.00 | 0.00 | 93 | 1012.0 |
| 20260906114242 | 23 | 139 | 0.0 | 0.0 | 0.00 | 0.00 | 0.00 | 93 | 1011.8 |
| 20260906113737 | 24 | 139 | 0.0 | 0.0 | 0.00 | 0.00 | 0.00 | 94 | 1011.7 |
| 20260906113237 | 24 | 139 | 0.0 | 0.0 | 0.00 | 0.00 | 0.00 | 95 | 1011.9 |
| 20260906112731 | 23 | 139 | 0.0 | 0.0 | 0.00 | 0.00 | 0.00 | 94 | 1011.8 |
| 20260906112228 | 23 | 139 | 0.0 | 0.0 | 0.00 | 0.00 | 0.00 | 93 | 1011.6 |
| 20260906111727 | 23 | 139 | 0.0 | 0.0 | 0.00 | 0.00 | 0.00 | 92 | 1011.7 |
| 20260906111222 | 23 | 139 | 0.0 | 0.0 | 0.00 | 0.00 | 0.00 | 92 | 1011.5 |
| 20260906110716 | 24 | 139 | 0.0 | 0.0 | 0.00 | 0.00 | 0.00 | 92 | 1011.9 |
| 20260906110207 | 24 | 139 | 0.0 | 0.0 | 0.00 | 0.00 | 0.00 | 92 | 1011.7 |
| 20260906105706 | 24 | 139 | 0.0 | 0.0 | 0.00 | 0.00 | 0.00 | 92 | 1011.6 |
| 20260906105202 | 24 | 139 | 0.0 | 0.0 | 0.00 | 0.00 | 0.00 | 92 | 1011.5 |
| 20260906104701 | 24 | 139 | 0.0 | 0.0 | 0.00 | 0.00 | 0.00 | 91 | 1011.6 |
| 20260906104200 | 24 | 139 | 0.0 | 0.0 | 0.00 | 0.00 | 0.00 | 91 | 1011.4 |
| 20260906103658 | 25 | 139 | 0.0 | 0.0 | 0.00 | 0.00 | 0.00 | 91 | 1011.5 |
| 20260906103153 | 25 | 139 | 0.0 | 0.0 | 0.00 | 0.00 | 0.00 | 92 | 1011.2 |
| 20260906102648 | 24 | 139 | 0.0 | 0.0 | 0.00 | 0.00 | 0.00 | 90 | 1011.5 |
| 20260906102143 | 25 | 139 | 0.0 | 0.0 | 0.00 | 0.00 | 0.00 | 89 | 1011.4 |
| 20260906101642 | 25 | 139 | 0.0 | 0.0 | 0.00 | 0.00 | 0.00 | 89 | 1011.3 |
| 20260906101137 | 25 | 139 | 0.0 | 0.0 | 0.00 | 0.00 | 0.00 | 88 | 1011.5 |
| 20260906100633 | 25 | 139 | 0.0 | 0.0 | 0.00 | 0.00 | 0.00 | 89 | 1011.3 |
| 20260906100127 | 25 | 139 | 0.0 | 0.0 | 0.00 | 0.00 | 0.00 | 88 | 1011.4 |
| 20260906095622 | 25 | 139 | 0.0 | 0.0 | 0.00 | 0.00 | 0.00 | 87 | 1011.2 |
| 20260906095118 | 25 | 139 | 0.0 | 0.0 | 0.00 | 0.00 | 0.00 | 87 | 1011.2 |
| 20260906094616 | 25 | 139 | 0.0 | 0.0 | 0.00 | 0.00 | 0.00 | 85 | 1011.3 |
| 20260906094112 | 25 | 139 | 0.0 | 0.0 | 0.00 | 0.00 | 0.00 | 85 | 1011.1 |
| 20260906093609 | 25 | 139 | 0.0 | 0.0 | 0.00 | 0.00 | 0.00 | 84 | 1010.9 |
| 20260906093103 | 26 | 139 | 0.0 | 0.0 | 0.00 | 0.00 | 0.00 | 84 | 1010.9 |
| 20260906092558 | 26 | 139 | 0.0 | 0.0 | 0.00 | 0.00 | 0.00 | 83 | 1010.8 |
| 20260906092053 | 26 | 139 | 0.0 | 0.0 | 0.00 | 0.00 | 0.00 | 82 | 1010.9 |
| 20260906091549 | 26 | 139 | 0.0 | 0.0 | 0.00 | 0.00 | 0.00 | 82 | 1010.7 |
| 20260906091045 | 26 | 139 | 0.0 | 0.0 | 0.00 | 0.00 | 0.00 | 81 | 1010.6 |
| 20260906090545 | 26 | 139 | 0.0 | 0.0 | 0.00 | 0.00 | 0.00 | 80 | 1010.8 |
| 20260906090040 | 27 | 139 | 0.0 | 0.0 | 0.00 | 0.00 | 0.00 | 79 | 1010.8 |
| 20260906085539 | 27 | 139 | 0.0 | 0.0 | 0.00 | 0.00 | 0.00 | 79 | 1010.9 |
| 20260906085038 | 27 | 139 | 0.0 | 0.0 | 0.00 | 0.00 | 0.00 | 78 | 1011.0 |
| 20260906084533 | 27 | 138 | 0.0 | 0.0 | 0.00 | 0.00 | 0.00 | 78 | 1010.8 |
| 20260906084032 | 27 | 180 | 1.6 | 1.6 | 0.00 | 0.00 | 0.00 | 77 | 1010.7 |
| 20260906083528 | 27 | 191 | 0.0 | 1.6 | 0.00 | 0.00 | 0.00 | 77 | 1010.8 |
| 20260906083027 | 27 | 120 | 3.2 | 3.2 | 0.00 | 0.00 | 0.00 | 77 | 1010.8 |
| 20260906082523 | 27 | 195 | 0.0 | 1.6 | 0.00 | 0.00 | 0.00 | 77 | 1010.7 |
| 20260906082019 | 27 | 227 | 1.6 | 1.6 | 0.00 | 0.00 | 0.00 | 77 | 1010.7 |
| 20260906081514 | 27 | 190 | 0.0 | 3.2 | 0.00 | 0.00 | 0.00 | 76 | 1010.6 |
| 20260906081010 | 27 | 231 | 0.0 | 3.2 | 0.00 | 0.00 | 0.00 | 76 | 1010.5 |
| 20260906080506 | 27 | 221 | 0.0 | 1.6 | 0.00 | 0.00 | 0.00 | 75 | 1010.5 |
| 20260906080002 | 28 | 174 | 0.0 | 4.8 | 0.00 | 0.00 | 0.00 | 75 | 1010.7 |
| 20260906075456 | 27 | 240 | 1.6 | 3.2 | 0.00 | 0.00 | 0.00 | 75 | 1010.7 |
| 20260906074950 | 28 | 166 | 0.0 | 1.6 | 0.00 | 0.00 | 0.00 | 75 | 1011.0 |
| 20260906074445 | 28 | 206 | 0.0 | 1.6 | 0.00 | 0.00 | 0.00 | 75 | 1011.0 |
| 20260906073943 | 28 | 171 | 0.0 | 1.6 | 0.00 | 0.00 | 0.00 | 75 | 1011.0 |
| 20260906073438 | 28 | 155 | 0.0 | 1.6 | 0.00 | 0.00 | 0.00 | 75 | 1011.1 |
| 20260906072935 | 28 | 226 | 1.6 | 3.2 | 0.00 | 0.00 | 0.00 | 75 | 1011.1 |
| 20260906072430 | 28 | 236 | 1.6 | 1.6 | 0.00 | 0.00 | 0.00 | 75 | 1011.2 |
| 20260906071925 | 28 | 184 | 0.0 | 0.0 | 0.00 | 0.00 | 0.00 | 75 | 1011.2 |
| 20260906071416 | 28 | 164 | 0.0 | 1.6 | 0.00 | 0.00 | 0.00 | 74 | 1011.0 |
| 20260906070912 | 28 | 157 | 0.0 | 1.6 | 0.00 | 0.00 | 0.00 | 74 | 1010.8 |
| 20260906070407 | 28 | 158 | 1.6 | 1.6 | 0.00 | 0.00 | 0.00 | 74 | 1011.0 |
| 20260906065903 | 28 | 170 | 0.0 | 1.6 | 0.00 | 0.00 | 0.00 | 74 | 1011.2 |
| 20260906065356 | 28 | 189 | 1.6 | 1.6 | 0.00 | 0.00 | 0.00 | 74 | 1011.1 |
| 20260906064852 | 28 | 183 | 1.6 | 1.6 | 0.00 | 0.00 | 0.00 | 74 | 1011.0 |
| 20260906064348 | 28 | 189 | 0.0 | 0.0 | 0.00 | 0.00 | 0.00 | 74 | 1010.9 |
| 20260906063843 | 28 | 198 | 0.0 | 1.6 | 0.00 | 0.00 | 0.00 | 74 | 1011.1 |
| 20260906063338 | 28 | 172 | 1.6 | 3.2 | 0.00 | 0.00 | 0.00 | 74 | 1011.2 |
| 20260906062833 | 28 | 220 | 0.0 | 3.2 | 0.00 | 0.00 | 0.00 | 74 | 1011.1 |
| 20260906062332 | 28 | 215 | 0.0 | 1.6 | 0.00 | 0.00 | 0.00 | 74 | 1011.0 |
| 20260906061828 | 28 | 137 | 0.0 | 1.6 | 0.00 | 0.00 | 0.00 | 74 | 1010.9 |
| 20260906061324 | 28 | 215 | 0.0 | 3.2 | 0.00 | 0.00 | 0.00 | 74 | 1010.9 |
| 20260906060819 | 28 | 197 | 0.0 | 1.6 | 0.00 | 0.00 | 0.00 | 75 | 1011.0 |
| 20260906060317 | 28 | 231 | 0.0 | 0.0 | 0.00 | 0.00 | 0.00 | 76 | 1011.3 |
| 20260906055812 | 28 | 189 | 0.0 | 1.6 | 0.00 | 0.00 | 0.00 | 75 | 1011.3 |
| 20260906055308 | 28 | 189 | 0.0 | 0.0 | 0.00 | 0.00 | 0.00 | 74 | 1011.2 |
| 20260906054803 | 28 | 189 | 0.0 | 0.0 | 0.00 | 0.00 | 0.00 | 74 | 1011.3 |
| 20260906054258 | 28 | 188 | 0.0 | 0.0 | 0.00 | 0.00 | 0.00 | 73 | 1011.4 |
| 20260906053754 | 28 | 187 | 0.0 | 0.0 | 0.00 | 0.00 | 0.00 | 72 | 1011.2 |
| 20260906053250 | 29 | 187 | 0.0 | 0.0 | 0.00 | 0.00 | 0.00 | 71 | 1011.2 |
| 20260906052745 | 29 | 183 | 0.0 | 0.0 | 0.00 | 0.00 | 0.00 | 70 | 1011.3 |
| 20260906052241 | 29 | 163 | 0.0 | 1.6 | 0.00 | 0.00 | 0.00 | 70 | 1011.2 |
| 20260906051738 | 29 | 173 | 0.0 | 1.6 | 0.00 | 0.00 | 0.00 | 69 | 1011.3 |
| 20260906051237 | 30 | 171 | 0.0 | 1.6 | 0.00 | 0.00 | 0.00 | 69 | 1011.5 |
| 20260906050733 | 30 | 138 | 1.6 | 4.8 | 0.00 | 0.00 | 0.00 | 69 | 1011.4 |
| 20260906050228 | 30 | 168 | 0.0 | 1.6 | 0.00 | 0.00 | 0.00 | 69 | 1011.6 |
| 20260906045726 | 30 | 141 | 0.0 | 1.6 | 0.00 | 0.00 | 0.00 | 69 | 1011.3 |
| 20260906045222 | 29 | 156 | 0.0 | 1.6 | 0.00 | 0.00 | 0.00 | 69 | 1011.4 |
| 20260906044717 | 29 | 142 | 3.2 | 3.2 | 0.00 | 0.00 | 0.00 | 69 | 1011.2 |
| 20260906044212 | 29 | 158 | 0.0 | 1.6 | 0.00 | 0.00 | 0.00 | 69 | 1011.2 |
| 20260906043709 | 29 | 193 | 0.0 | 0.0 | 0.00 | 0.00 | 0.00 | 69 | 1011.3 |
| 20260906043204 | 29 | 176 | 0.0 | 0.0 | 0.00 | 0.00 | 0.00 | 68 | 1011.3 |
| 20260906042703 | 30 | 179 | 0.0 | 0.0 | 0.00 | 0.00 | 0.00 | 67 | 1011.3 |
| 20260906042157 | 30 | 179 | 0.0 | 0.0 | 0.00 | 0.00 | 0.00 | 66 | 1011.1 |
| 20260906041653 | 30 | 233 | 0.0 | 1.6 | 0.00 | 0.00 | 0.00 | 66 | 1011.1 |
| 20260906041148 | 30 | 171 | 0.0 | 1.6 | 0.00 | 0.00 | 0.00 | 65 | 1011.2 |
| 20260906040643 | 30 | 155 | 0.0 | 3.2 | 0.00 | 0.00 | 0.00 | 65 | 1011.0 |
| 20260906040139 | 30 | 141 | 1.6 | 1.6 | 0.00 | 0.00 | 0.00 | 64 | 1011.0 |
| 20260906035634 | 30 | 156 | 0.0 | 3.2 | 0.00 | 0.00 | 0.00 | 64 | 1011.3 |
| 20260906035129 | 30 | 188 | 0.0 | 1.6 | 0.00 | 0.00 | 0.00 | 64 | 1011.0 |
| 20260906034629 | 30 | 207 | 0.0 | 1.6 | 0.00 | 0.00 | 0.00 | 64 | 1011.1 |
| 20260906034124 | 30 | 189 | 1.6 | 1.6 | 0.00 | 0.00 | 0.00 | 63 | 1011.3 |
| 20260906033620 | 31 | 191 | 1.6 | 3.2 | 0.00 | 0.00 | 0.00 | 62 | 1011.3 |
| 20260906033114 | 31 | 187 | 0.0 | 1.6 | 0.00 | 0.00 | 0.00 | 62 | 1011.2 |
| 20260906032611 | 31 | 99 | 0.0 | 1.6 | 0.00 | 0.00 | 0.00 | 62 | 1011.3 |
| 20260906032105 | 31 | 191 | 0.0 | 1.6 | 0.00 | 0.00 | 0.00 | 61 | 1011.3 |
| 20260906031601 | 31 | 175 | 0.0 | 3.2 | 0.00 | 0.00 | 0.00 | 61 | 1011.1 |
| 20260906031057 | 31 | 194 | 0.0 | 3.2 | 0.00 | 0.00 | 0.00 | 60 | 1011.3 |
| 20260906030556 | 31 | 222 | 1.6 | 4.8 | 0.00 | 0.00 | 0.00 | 60 | 1011.1 |
| 20260906030055 | 31 | 76 | 3.2 | 3.2 | 0.00 | 0.00 | 0.00 | 60 | 1011.3 |
| 20260906025550 | 31 | 156 | 1.6 | 4.8 | 0.00 | 0.00 | 0.00 | 59 | 1011.3 |
| 20260906025048 | 31 | 71 | 3.2 | 3.2 | 0.00 | 0.00 | 0.00 | 59 | 1011.3 |
| 20260906024543 | 31 | 128 | 1.6 | 8.0 | 0.00 | 0.00 | 0.00 | 59 | 1011.0 |
| 20260906024038 | 32 | 224 | 3.2 | 8.0 | 0.00 | 0.00 | 0.00 | 58 | 1010.9 |
| 20260906023534 | 32 | 192 | 0.0 | 3.2 | 0.00 | 0.00 | 0.00 | 58 | 1010.9 |
| 20260906023028 | 32 | 147 | 1.6 | 3.2 | 0.00 | 0.00 | 0.00 | 58 | 1010.8 |
| 20260906022523 | 32 | 85 | 3.2 | 4.8 | 0.00 | 0.00 | 0.00 | 58 | 1010.8 |
| 20260906022013 | 32 | 168 | 1.6 | 3.2 | 0.00 | 0.00 | 0.00 | 57 | 1010.5 |
| 20260906021508 | 32 | 77 | 1.6 | 1.6 | 0.00 | 0.00 | 0.00 | 56 | 1010.5 |
| 20260906021002 | 32 | 125 | 3.2 | 4.8 | 0.00 | 0.00 | 0.00 | 56 | 1010.4 |
| 20260906020456 | 32 | 121 | 3.2 | 8.0 | 0.00 | 0.00 | 0.00 | 55 | 1010.3 |
| 20260906015956 | 32 | 113 | 4.8 | 9.7 | 0.00 | 0.00 | 0.00 | 55 | 1010.3 |
| 20260906015455 | 33 | 63 | 8.0 | 11.3 | 0.00 | 0.00 | 0.00 | 54 | 1010.1 |
| 20260906014949 | 33 | 109 | 4.8 | 9.7 | 0.00 | 0.00 | 0.00 | 53 | 1010.1 |
| 20260906014450 | 33 | 230 | 1.6 | 8.0 | 0.00 | 0.00 | 0.00 | 51 | 1009.9 |
| 20260906013945 | 33 | 143 | 1.6 | 3.2 | 0.00 | 0.00 | 0.00 | 49 | 1010.0 |
| 20260906013440 | 33 | 116 | 0.0 | 1.6 | 0.00 | 0.00 | 0.00 | 48 | 1009.8 |
| 20260906012936 | 33 | 107 | 0.0 | 1.6 | 0.00 | 0.00 | 0.00 | 47 | 1009.4 |
| 20260906012431 | 33 | 119 | 0.0 | 0.0 | 0.00 | 0.00 | 0.00 | 47 | 1009.6 |
| 20260906011930 | 33 | 119 | 0.0 | 1.6 | 0.00 | 0.00 | 0.00 | 46 | 1009.4 |
| 20260906011425 | 33 | 128 | 0.0 | 0.0 | 0.00 | 0.00 | 0.00 | 46 | 1009.2 |
| 20260906010921 | 34 | 133 | 0.0 | 0.0 | 0.00 | 0.00 | 0.00 | 46 | 1009.4 |
| 20260906010416 | 34 | 122 | 0.0 | 1.6 | 0.00 | 0.00 | 0.00 | 45 | 1009.6 |
| 20260906005912 | 34 | 137 | 0.0 | 1.6 | 0.00 | 0.00 | 0.00 | 45 | 1009.2 |
| 20260906005411 | 35 | 123 | 1.6 | 3.2 | 0.00 | 0.00 | 0.00 | 44 | 1009.2 |
| 20260906004904 | 35 | 136 | 0.0 | 3.2 | 0.00 | 0.00 | 0.00 | 44 | 1009.3 |
| 20260906004359 | 35 | 101 | 1.6 | 1.6 | 0.00 | 0.00 | 0.00 | 43 | 1009.4 |
| 20260906003855 | 35 | 137 | 0.0 | 3.2 | 0.00 | 0.00 | 0.00 | 42 | 1009.4 |
| 20260906003350 | 35 | 127 | 0.0 | 1.6 | 0.00 | 0.00 | 0.00 | 42 | 1009.1 |
| 20260906002846 | 35 | 89 | 0.0 | 1.6 | 0.00 | 0.00 | 0.00 | 42 | 1009.3 |
| 20260906002345 | 35 | 150 | 0.0 | 4.8 | 0.00 | 0.00 | 0.00 | 42 | 1009.3 |
| 20260906001841 | 36 | 95 | 1.6 | 3.2 | 0.00 | 0.00 | 0.00 | 41 | 1009.3 |
| 20260906001336 | 36 | 112 | 1.6 | 3.2 | 0.00 | 0.00 | 0.00 | 41 | 1009.2 |
| 20260906000831 | 36 | 140 | 1.6 | 8.0 | 0.00 | 0.00 | 0.00 | 41 | 1009.1 |
| 20260906000326 | 36 | 121 | 1.6 | 3.2 | 0.00 | 0.00 | 0.00 | 41 | 1009.0 |
| 20260905235826 | 37 | 163 | 1.6 | 4.8 | 0.00 | 0.00 | 0.00 | 41 | 1008.9 |
| 20260905235325 | 37 | 148 | 0.0 | 1.6 | 0.00 | 0.00 | 0.00 | 40 | 1009.0 |
| 20260905234821 | 36 | 148 | 0.0 | 4.8 | 0.00 | 0.00 | 0.00 | 41 | 1009.0 |
| 20260905234316 | 36 | 118 | 1.6 | 3.2 | 0.00 | 0.00 | 0.00 | 41 | 1009.0 |
| 20260905233811 | 37 | 103 | 1.6 | 4.8 | 0.00 | 0.00 | 0.00 | 41 | 1009.1 |
| 20260905233306 | 37 | 168 | 1.6 | 4.8 | 0.00 | 0.00 | 0.00 | 40 | 1009.1 |
| 20260905232805 | 37 | 180 | 0.0 | 1.6 | 0.00 | 0.00 | 0.00 | 40 | 1009.0 |
| 20260905232301 | 37 | 145 | 1.6 | 3.2 | 0.00 | 0.00 | 0.00 | 41 | 1009.1 |
| 20260905231756 | 37 | 273 | 1.6 | 8.0 | 0.00 | 0.00 | 0.00 | 41 | 1009.0 |
| 20260905231251 | 37 | 82 | 4.8 | 4.8 | 0.00 | 0.00 | 0.00 | 40 | 1009.1 |
| 20260905230742 | 37 | 159 | 0.0 | 1.6 | 0.00 | 0.00 | 0.00 | 40 | 1009.1 |
| 20260905230239 | 37 | 107 | 1.6 | 3.2 | 0.00 | 0.00 | 0.00 | 40 | 1008.9 |